Regional Weather Roundup
Issued by NWS Newport/Morehead, NC

Current Version | Previous Version | Graphics & Text | Print | Product List | Glossary Off
Versions: 1 2 3 4 5 6 7 8 9 10 11 12 13 14 15 16 17 18 19 20 21 22 23 24 25 26 27 28 29 30 31 32 33 34 35 36 37 38 39 40 41 42 43 44 45 46 47 48 49 50

000
ASUS42 KMHX 212025
RWRMHX
WEATHER ROUNDUP FOR EASTERN NORTH CAROLINA
NATIONAL WEATHER SERVICE NEWPORT/MOREHEAD CITY NC
300 PM EST TUE FEB 21 2017

NOTE: "FAIR" INDICATES FEW OR NO CLOUDS BELOW 12,000 FEET
WITH NO SIGNIFICANT WEATHER AND/OR OBSTRUCTIONS TO VISIBILITY

NCZ015>017-031-032-045>047-102-103-212100-
NORTH COAST

CITY           SKY/WX    TMP DP  RH WIND       PRES   REMARKS
EDENTON        CLOUDY    59  45  58 E13       30.20F
ELIZABETH CITY MOSUNNY   56  41  57 E10       30.22F
KITTY HAWK     NOT AVBL
MANTEO         MOSUNNY   53  44  70 E15       30.22F

$$

NCZ045>047-081-094-103-104-212100-
CENTRAL COAST

CITY           SKY/WX    TMP DP  RH WIND       PRES   REMARKS
FRISCO         CLOUDY    63  51  65 VRB7      30.19F

$$

NCZ095-097-098-100-101-212100-
SOUTHERN COAST

CITY           SKY/WX    TMP DP  RH WIND       PRES   REMARKS
BEAUFORT       CLOUDY    66  52  60 NE9       30.16F
CEDAR ISLAND   NOT AVBL
JACKSONVILLE   PTSUNNY   67  51  56 SE7       30.15F
PINEY ISLAND   PTCLDY   N/A N/A N/A NE15      30.18F
WILMINGTON     MOSUNNY   65  52  62 E8        30.15F


$$

NCZ011>013-027>030-043-044-078>080-089-090>093-098-212100-
COASTAL PLAIN

CITY           SKY/WX    TMP DP  RH WIND       PRES   REMARKS
AHOSKIE          N/A     60  44  53 E8        30.18F
CLINTON        CLOUDY    66  39  36 NE3       30.16S
ELIZABETHTOWN  PTSUNNY   69  38  32 CALM      30.14F
GOLDSBORO      MOSUNNY   66  38  35 SE8       30.14F
GREENVILLE     MOSUNNY   64  46  52 S7        30.17F
HAVELOCK       NOT AVBL
KENANSVILLE    NOT AVBL
KINSTON        MOSUNNY   66  46  48 E5        30.17F
NEW BERN       MOSUNNY   65  50  58 SE10      30.18F
RICHLANDS      MOSUNNY   67  46  47 SE8       30.16F
ROCKY MOUNT    CLOUDY    64  41  42 CALM      30.17F
WASHINGTON     MOSUNNY   65  48  53 S7        30.17F
WHITEVILLE     CLOUDY    69  41  36 NE7       30.12F

$$

AMZ130-135-150-152-154-156-158-170-250-252-270-ANZ085-086-088-633-658-670-212100-
MARINE OBSERVATIONS

STATION/POSITION TIME  TEMP    WIND        PRES    WAVE   SWELL
                       AIR SEA DIR/SP/G            HT/PER HT/PER
                 (UTC) (F)     (DEG/KT/KT) (MB)    (FT/S) (FT/S)
CHESAPEAKE LIGHT NOT AVBL
64 E VA BEACH    1950   51 54   50/ 12/ 14 1023.5    4/ 6   3/ 6
DUCK             2000   49 49   40/ 12/ 13 1022.6
2 E DUCK         2000      50                N/A     4/ 7
OREGON INLET     2000   51 51   20/ 11/ 13 1022.6
13E OREGON INLT  NOT AVBL
HATTERAS CG      2000   56 58   20/  9/ 13 1021.8
DIAMOND BUOY     1950   63 75  110/ 12/ 14 1021.9    5/ 8   5/ 8
CAPE LOOKOUT     2000   57      40/ 13/ 14 1021.2
BEAUFORT LAB     2000   64 53   70/  7/ 10 1020.5
30 SE NEW RVR IN 2008   61      50/ 14/ 17 1020.8
30 SE NEW RVR IN 1943      68                N/A     4/ 8
27 SE WRIGHTSVLE 2008   62 64   60/ 14/ 17 1019.9
5 SE WRIGHTSVLE  2008   58 56   60/ 10/ 16 1020.7
225 S CAPE HAT   1950   64 71   70/ 12/ 19 1020.0    5/ 8   3/ 8
41 SE CHARLESTON 1950   70 69   90/ 17/ 19 1017.8    4/ 6   2/ 7

$$




USA.gov is the U.S. government's official web portal to all federal, state and local government web resources and services.